EW9427 Weather Reports


time (UTC)temp
F
wind
direction
speed
knots
gust
knots
rain 1hr
in
rain 24hr
in
rain mn
in
humidity
%
barometer
mb
20220812004537 92 284 4.3 12.2 0.00 0.00 0.00 22 1016.3
20220812003036 93 279 8.7 15.6 0.00 0.00 0.00 21 1016.3
20220812001553 93 303 7.8 14.8 0.00 0.00 0.00 21 1016.4
20220812000036 94 286 7.0 19.1 0.00 0.00 0.00 21 1016.5
20220811234532 94 292 6.1 11.3 0.00 0.00 0.00 21 1016.5
20220811233048 94 288 9.6 15.6 0.00 0.00 0.00 20 1016.6
20220811231534 94 294 7.8 13.0 0.00 0.00 0.00 19 1016.7
20220811230050 94 291 9.6 14.8 0.00 0.00 0.00 21 1016.7
20220811224520 95 278 5.2 13.9 0.00 0.00 0.00 21 1016.8
20220811223019 95 263 1.7 13.0 0.00 0.00 0.00 21 1016.7
20220811221521 95 271 5.2 17.4 0.00 0.00 0.00 20 1016.7
20220811220014 94 271 7.8 20.9 0.00 0.00 0.00 24 1016.7
20220811214518 94 278 4.3 15.6 0.00 0.00 0.00 25 1016.9
20220811213010 93 246 6.1 16.5 0.00 0.00 0.00 25 1017.0
20220811211526 93 334 7.8 14.8 0.00 0.00 0.00 25 1017.1
20220811210009 93 225 3.5 9.6 0.00 0.00 0.00 27 1017.1
20220811204508 92 279 7.0 16.5 0.00 0.00 0.00 27 1017.2
20220811203003 92 273 4.3 13.9 0.00 0.00 0.00 27 1017.3
20220811201603 91 292 8.7 16.5 0.00 0.00 0.00 28 1017.2
20220811200107 91 287 6.1 15.6 0.00 0.00 0.00 29 1017.5
20220811194600 91 265 2.6 13.0 0.00 0.00 0.00 29 1017.5
20220811193054 90 277 6.1 12.2 0.00 0.00 0.00 30 1017.6
20220811191603 89 290 2.6 16.5 0.00 0.00 0.00 32 1017.7
20220811190051 89 277 3.5 11.3 0.00 0.00 0.00 32 1017.9
20220811184547 88 294 3.5 10.4 0.00 0.00 0.00 32 1017.9
20220811183043 87 248 2.6 7.8 0.00 0.00 0.00 34 1018.1
20220811181550 85 278 4.3 12.2 0.00 0.00 0.00 36 1018.2
20220811180039 84 292 3.5 10.4 0.00 0.00 0.00 37 1018.4
20220811174601 84 271 4.3 10.4 0.00 0.00 0.00 36 1018.2
20220811173031 84 310 6.1 11.3 0.00 0.00 0.00 37 1018.3
20220811171535 83 294 2.6 7.8 0.00 0.00 0.00 40 1018.3
20220811170041 82 292 0.9 7.0 0.00 0.00 0.00 43 1018.4
20220811164521 81 281 2.6 8.7 0.00 0.00 0.00 45 1018.4
20220811163021 81 229 1.7 7.8 0.00 0.00 0.00 44 1018.4
20220811161518 80 259 0.9 6.1 0.00 0.00 0.00 45 1018.6
20220811160015 79 210 3.5 8.7 0.00 0.00 0.00 47 1018.7
20220811154532 78 221 5.2 8.7 0.00 0.00 0.00 48 1018.8
20220811153013 77 205 5.2 8.7 0.00 0.00 0.00 49 1018.8
20220811151507 74 316 0.0 2.6 0.00 0.00 0.00 57 1018.9
20220811150010 72 315 0.0 1.7 0.00 0.00 0.00 64 1019.0
20220811144503 70 316 0.0 2.6 0.00 0.00 0.00 68 1019.1
20220811143102 69 316 0.0 2.6 0.00 0.00 0.00 69 1019.2
20220811141606 69 317 0.9 3.5 0.00 0.00 0.00 69 1019.2
20220811140111 68 317 0.0 3.5 0.00 0.00 0.00 72 1019.2
20220811134554 67 228 0.0 2.6 0.00 0.00 0.00 74 1019.2
20220811133049 66 228 0.0 5.2 0.00 0.00 0.00 76 1019.1
20220811131552 64 195 1.7 2.6 0.00 0.00 0.00 78 1019.1
20220811130050 63 145 0.0 2.6 0.00 0.00 0.00 80 1019.2
20220811124607 63 145 0.0 0.0 0.00 0.00 0.00 79 1019.0
20220811123055 64 145 1.7 2.6 0.00 0.00 0.00 78 1018.8
20220811121558 64 145 1.7 4.3 0.00 0.00 0.00 76 1018.8
20220811120038 66 162 2.6 3.5 0.00 0.00 0.00 72 1018.7
20220811114530 65 117 2.6 6.1 0.00 0.00 0.00 72 1018.6
20220811113038 65 54 1.7 3.5 0.00 0.00 0.00 71 1018.6
20220811111525 67 53 0.0 0.0 0.00 0.00 0.00 70 1018.6
20220811110022 68 54 0.0 0.0 0.00 0.00 0.00 68 1018.5
20220811104528 69 53 0.0 0.9 0.00 0.00 0.00 67 1018.6
20220811103030 70 54 0.0 0.9 0.00 0.00 0.00 62 1018.5
20220811101526 71 63 0.0 1.7 0.00 0.00 0.00 61 1018.5
20220811100014 71 63 0.0 1.7 0.00 0.00 0.00 62 1018.5
20220811094515 71 63 0.0 3.5 0.00 0.00 0.00 63 1018.6
20220811093011 71 63 3.5 4.3 0.00 0.00 0.00 63 1018.5
20220811091512 71 36 2.6 4.3 0.00 0.00 0.00 64 1018.7
20220811090013 72 284 0.0 0.9 0.00 0.00 0.00 61 1018.9
20220811084503 72 284 0.0 2.6 0.00 0.00 0.00 61 1018.9
20220811083109 73 284 0.0 1.7 0.00 0.00 0.00 58 1019.0
20220811081557 75 284 2.6 4.3 0.00 0.00 0.00 54 1019.1
20220811080137 76 281 1.7 7.8 0.00 0.00 0.00 50 1019.2
20220811074604 74 302 1.7 4.3 0.00 0.00 0.00 52 1019.1
20220811073141 76 337 0.9 3.5 0.00 0.00 0.00 50 1019.1
20220811071608 76 344 3.5 5.2 0.00 0.00 0.00 48 1019.1
20220811070125 76 302 1.7 7.0 0.00 0.00 0.00 49 1019.1
20220811064552 75 296 0.0 6.1 0.00 0.00 0.00 52 1019.2
20220811063106 75 321 0.9 3.5 0.00 0.00 0.00 53 1019.1
20220811061549 75 355 0.0 7.0 0.00 0.00 0.00 53 1019.0
20220811060153 76 360 3.5 7.8 0.00 0.00 0.00 53 1019.0
20220811054611 76 294 2.6 6.1 0.00 0.00 0.00 52 1019.0
20220811053046 77 319 3.5 7.0 0.00 0.00 0.00 50 1019.1
20220811051541 77 304 1.7 9.6 0.00 0.00 0.00 48 1019.0
20220811050038 79 321 6.1 11.3 0.00 0.00 0.00 45 1018.9
20220811044550 78 351 6.1 8.7 0.00 0.00 0.00 46 1019.0
20220811043038 80 310 2.6 13.0 0.00 0.00 0.00 42 1018.7
20220811041536 80 286 7.8 13.0 0.00 0.00 0.00 43 1018.6
20220811040058 81 292 10.4 18.2 0.00 0.00 0.00 42 1018.3
20220811034536 83 284 9.6 16.5 0.00 0.00 0.00 37 1018.5
20220811033047 84 285 4.3 9.6 0.00 0.00 0.00 33 1018.7
20220811030042 83 213 1.7 3.5 0.00 0.00 0.00 34 1018.3
20220811024532 84 213 0.0 0.0 0.00 0.00 0.00 34 1018.1
20220811023037 85 213 0.0 0.0 0.00 0.00 0.00 32 1018.0
20220811021545 86 213 0.0 1.7 0.00 0.00 0.00 32 1017.9
20220811020034 87 213 0.9 4.3 0.00 0.00 0.00 31 1017.9
20220811014524 88 209 3.5 7.0 0.00 0.00 0.00 30 1017.9
20220811013049 88 197 3.5 7.8 0.00 0.00 0.00 30 1017.8
20220811011548 89 194 5.2 10.4 0.00 0.00 0.00 30 1017.7
20220811010050 89 161 6.1 8.7 0.00 0.00 0.00 30 1017.6